User: anonymous   Login
Location: Unspecified
(0.0000°N, 0.0000°E)
Time: 22:55:10
(UTC+00:00)
Language:

SERT 2 - Orbit

View from above orbital plane
View from above orbital plane
View from above satellite
View from above satellite

Ground track
Ground track

The orbit data is extracted from the following two-line orbital elements,

1  4327U 70009A   19023.20096171 -.00000057  00000-0 -21840-4 0  9996
2  4327  99.2675  95.7130 0004650 358.6891  59.3132 13.58485591426921
Epoch (UTC): 23 January 2019 04:49:23
Eccentricity: 0.0004650
inclination: 99.2675°
perigee height: 1038 km
apogee height: 1044 km
right ascension of ascending node: 95.7130°
argument of perigee: 358.6891°
revolutions per day: 13.58485591
mean anomaly at epoch: 59.3132°
orbit number at epoch: 42692

The dashed part of the orbit path shows where the satellite is in the earth's shadow,  

DLR